FW0198 Bethesda MD US current weather conditions

sailwx.info

Wind from 307 at 0 knots gusting 4

Air temperature 7.2° C
Dewpoint -1.2° C

Last reported at 2020-Jan-28 21:00 UTC.
Time now 2020-Jan-28 22:05 UTC

Location: N 38°57' W 077°06'.
View on Google Maps.

See reports from other nearby stations

  
Tides and Currents Weather Stations Pressure Air Temp Water Temp Dewpoint Dewpoint Depression Visibility Wind Speed Wind Dir Waves Ship Positions
date/time (UTC)wind fromknots sea level pressurealtimeterstation pressurevisibilityair tempwater tempwave heightnotes
2020-Jan-28 21:00 307 0 gusting 4 7.2
2020-Jan-28 20:55 351 0 gusting 4 7.2
2020-Jan-28 20:50 283 1 gusting 4 7.2
2020-Jan-28 20:45 300 1 gusting 3 7.2
2020-Jan-28 20:40 314 7.2
2020-Jan-28 20:35 338 0 gusting 5 7.2
2020-Jan-28 20:30 326 1 gusting 5 7.2
2020-Jan-28 20:25 087 0 gusting 3 7.2
2020-Jan-28 20:20 298 1 gusting 3 7.8
2020-Jan-28 20:15 319 1 gusting 3 7.8
2020-Jan-28 20:10 350 0 gusting 3 7.8
2020-Jan-28 20:05 286 0 gusting 5 7.8
2020-Jan-28 20:00 306 1 gusting 5 7.8
2020-Jan-28 19:55 149 0 gusting 7 7.8
2020-Jan-28 19:50 316 2 gusting 7 8.3
2020-Jan-28 19:45 8.3
2020-Jan-28 19:40 330 2 gusting 8 7.8
2020-Jan-28 19:35 343 2 gusting 5 7.2
2020-Jan-28 19:30 340 1 gusting 4 7.2
2020-Jan-28 19:25 096 1 gusting 4 7.2
2020-Jan-28 19:20 7.2
2020-Jan-28 19:15 330 0 gusting 4 7.2
2020-Jan-28 19:10 316 0 gusting 5 7.2
2020-Jan-28 19:05 306 2 gusting 5 7.2
2020-Jan-28 19:00 298 2 gusting 5 7.2
2020-Jan-28 18:55 288 1 gusting 5 7.2
2020-Jan-28 18:50 281 1 gusting 4 7.2
2020-Jan-28 18:45 312 1 gusting 6 7.2
2020-Jan-28 18:40 278 2 gusting 6 7.8
2020-Jan-28 18:35 261 1 gusting 4 7.8
2020-Jan-28 18:30 310 1 gusting 4 7.2
2020-Jan-28 18:25 317 1 gusting 4 6.7
2020-Jan-28 18:20 329 0 gusting 3 6.7
2020-Jan-28 18:15 320 0 gusting 3 6.7
2020-Jan-28 18:10 343 1 gusting 3 6.7
2020-Jan-28 18:05 283 0 gusting 7 7.2
2020-Jan-28 18:00 344 2 gusting 7 6.7
2020-Jan-28 17:55 6.7
2020-Jan-28 17:50 7.2
2020-Jan-28 17:45 334 3 gusting 8 7.2
2020-Jan-28 17:40 334 2 gusting 6 7.2
2020-Jan-28 17:35 337 2 gusting 6 6.7
2020-Jan-28 17:30 347 1 gusting 2 7.2
2020-Jan-28 17:25 316 0 gusting 4 6.7
2020-Jan-28 17:20 313 1 gusting 4 7.2
2020-Jan-28 17:15 337 0 gusting 4 7.2
2020-Jan-28 17:10 6.7
2020-Jan-28 17:05 350 6.7
2020-Jan-28 17:00 338 1 gusting 7 6.7
2020-Jan-28 16:55 323 1 gusting 6 7.2
2020-Jan-28 16:50 313 1 gusting 6 6.7
2020-Jan-28 16:45 327 0 gusting 6 7.2
2020-Jan-28 16:40 223 1 gusting 6 7.2
2020-Jan-28 16:35 358 1 gusting 8 7.2
2020-Jan-28 16:30 303 4 gusting 8 7.2
2020-Jan-28 16:25 283 1 gusting 5 7.2
2020-Jan-28 16:20 7.2
2020-Jan-28 16:15 279 1 gusting 3 6.7
2020-Jan-28 16:10 344 1 gusting 8 6.7
2020-Jan-28 16:05 6.7
2020-Jan-28 16:00 314 2 gusting 6 6.7
2020-Jan-28 15:55 336 1 gusting 5 6.7
2020-Jan-28 15:50 326 0 gusting 5 6.7
2020-Jan-28 15:45 351 1 gusting 5 6.7
2020-Jan-28 15:40 357 1 gusting 8 6.7
2020-Jan-28 15:35 259 2 gusting 8 6.7
2020-Jan-28 15:30 295 1 gusting 6 6.7
2020-Jan-28 15:25 312 1 gusting 6 6.1
2020-Jan-28 15:20 324 3 gusting 6 6.1
2020-Jan-28 15:15 259 1 gusting 7 6.1
2020-Jan-28 15:10 329 2 gusting 7 6.1
2020-Jan-28 15:05 305 1 gusting 5 6.1
2020-Jan-28 15:00 338 1 gusting 4 6.1
2020-Jan-28 14:55 324 1 gusting 4 6.1
2020-Jan-28 14:50 292 1 gusting 3 6.1
2020-Jan-28 14:45 357 0 gusting 6 5.6
2020-Jan-28 14:40 314 1 gusting 6 5.6
2020-Jan-28 14:35 324 2 gusting 4 5.6
2020-Jan-28 14:30 323 0 gusting 4 5.6
2020-Jan-28 14:25 303 1 gusting 5 5.6
2020-Jan-28 14:20 343 2 gusting 5 5.6
2020-Jan-28 14:15 278 1 gusting 5 5.6
2020-Jan-28 14:10 289 0 gusting 3 5.6
2020-Jan-28 14:05 327 1 gusting 3 5.6
2020-Jan-28 14:00 5.0
2020-Jan-28 13:55 324 5.0
2020-Jan-28 13:50 326 0 gusting 2 5.0
2020-Jan-28 13:45 255 4.4
2020-Jan-28 13:40 317 0 gusting 2 4.4
2020-Jan-28 13:35 350 4.4
2020-Jan-28 13:30 324 0 gusting 1 4.4
2020-Jan-28 13:25 290 0 gusting 2 3.9
2020-Jan-28 13:20 266 0 gusting 2 3.9
2020-Jan-28 13:15 343 0 gusting 2 3.9
2020-Jan-28 13:10 330 3.9
2020-Jan-28 13:05 334 3.9
2020-Jan-28 13:00 333 3.9
2020-Jan-28 12:55 333 3.9
2020-Jan-28 12:50 334 3.9
2020-Jan-28 12:45 334 4.4
2020-Jan-28 12:40 338 4.4
2020-Jan-28 12:35 326 4.4
2020-Jan-28 12:30 310 4.4
2020-Jan-28 12:25 337 0 gusting 2 4.4
2020-Jan-28 12:20 323 0 gusting 2 4.4
2020-Jan-28 12:15 4.4
2020-Jan-28 12:10 354 4.4
2020-Jan-28 12:05 310 0 gusting 2 4.4
2020-Jan-28 12:00 317 0 gusting 2 4.4
2020-Jan-28 11:55 290 0 gusting 3 4.4
2020-Jan-28 11:50 314 1 gusting 3 4.4
2020-Jan-28 11:45 348 4.4
2020-Jan-28 11:40 326 4.4
2020-Jan-28 11:35 299 0 gusting 2 4.4
2020-Jan-28 11:30 321 1 gusting 2 4.4
2020-Jan-28 11:25 303 4.4
2020-Jan-28 11:20 285 4.4
2020-Jan-28 11:15 321 4.4
2020-Jan-28 11:10 317 4.4
2020-Jan-28 11:05 316 0 gusting 3 4.4
2020-Jan-28 11:00 306 4.4
2020-Jan-28 10:55 323 4.4
2020-Jan-28 10:50 333 0 gusting 2 4.4
2020-Jan-28 10:45 340 0 gusting 3 4.4
2020-Jan-28 10:40 341 0 gusting 3 4.4
2020-Jan-28 10:35 313 0 gusting 3 4.4
2020-Jan-28 10:30 295 0 gusting 3 4.4
2020-Jan-28 10:25 320 4.4
2020-Jan-28 10:20 319 0 gusting 1 4.4
2020-Jan-28 10:15 354 4.4
2020-Jan-28 10:10 312 0 gusting 1 4.4
2020-Jan-28 10:05 329 4.4
2020-Jan-28 10:00 333 0 gusting 3 4.4
2020-Jan-28 09:55 299 0 gusting 3 4.4
2020-Jan-28 09:50 326 4.4
2020-Jan-28 09:45 299 0 gusting 2 4.4
2020-Jan-28 09:40 310 1 gusting 2 4.4
2020-Jan-28 09:35 348 4.4
2020-Jan-28 09:30 327 1 gusting 3 4.4
2020-Jan-28 09:25 313 0 gusting 3 4.4
2020-Jan-28 09:20 327 0 gusting 3 4.4
2020-Jan-28 09:15 337 0 gusting 2 4.4
2020-Jan-28 09:10 258 0 gusting 2 4.4
2020-Jan-28 09:05 324 4.4
2020-Jan-28 09:00 323 4.4
2020-Jan-28 08:55 266 4.4
2020-Jan-28 08:50 343 0 gusting 2 4.4
2020-Jan-28 08:45 251 4.4
2020-Jan-28 08:40 330 4.4
2020-Jan-28 08:35 333 0 gusting 2 4.4
2020-Jan-28 08:30 353 0 gusting 2 4.4
2020-Jan-28 08:25 341 4.4
2020-Jan-28 08:20 4.4
2020-Jan-28 08:15 279 1 gusting 3 4.4
2020-Jan-28 08:10 323 0 gusting 1 4.4
2020-Jan-28 08:05 306 4.4
2020-Jan-28 08:00 323 4.4
2020-Jan-28 07:55 326 4.4
2020-Jan-28 07:50 326 0 gusting 2 5.0
2020-Jan-28 07:45 316 5.0
2020-Jan-28 07:40 323 0 gusting 1 5.0
2020-Jan-28 07:35 316 0 gusting 1 5.0
2020-Jan-28 07:30 5.0
2020-Jan-28 07:25 086 5.0
2020-Jan-28 07:20 334 0 gusting 2 5.0
2020-Jan-28 07:15 316 5.0
2020-Jan-28 07:10 330 5.0
2020-Jan-28 07:05 326 5.0
2020-Jan-28 07:00 286 0 gusting 2 5.0
2020-Jan-28 06:55 319 5.0
2020-Jan-28 06:50 298 0 gusting 3 5.0
2020-Jan-28 06:45 312 1 gusting 3 5.0
2020-Jan-28 06:40 333 5.0
2020-Jan-28 06:35 306 1 gusting 3 5.0
2020-Jan-28 06:30 329 0 gusting 3 5.0
2020-Jan-28 06:25 300 0 gusting 3 5.0
2020-Jan-28 06:20 303 0 gusting 2 5.0
2020-Jan-28 06:15 303 1 gusting 2 5.0
2020-Jan-28 06:10 323 5.0
2020-Jan-28 06:05 344 0 gusting 2 5.0
2020-Jan-28 06:00 313 5.0
2020-Jan-28 05:55 312 0 gusting 3 5.0
2020-Jan-28 05:50 312 0 gusting 1 5.0
2020-Jan-28 05:45 327 0 gusting 2 5.0
2020-Jan-28 05:40 286 1 gusting 4 5.0
2020-Jan-28 05:35 007 0 gusting 4 5.0
2020-Jan-28 05:30 265 1 gusting 3 5.0
2020-Jan-28 05:25 317 0 gusting 2 5.0
2020-Jan-28 05:20 331 0 gusting 2 5.0
2020-Jan-28 05:15 319 0 gusting 3 5.0
2020-Jan-28 05:10 293 5.0
2020-Jan-28 05:05 321 1 gusting 4 5.0
2020-Jan-28 05:00 329 0 gusting 2 5.0
2020-Jan-28 04:55 337 0 gusting 2 5.0
2020-Jan-28 04:50 5.6
2020-Jan-28 04:45 357 0 gusting 3 5.6
2020-Jan-28 04:40 329 0 gusting 3 5.6
2020-Jan-28 04:35 300 0 gusting 2 5.6
2020-Jan-28 04:30 296 0 gusting 2 5.6
2020-Jan-28 04:25 358 1 gusting 6 5.6
2020-Jan-28 04:20 340 1 gusting 6 5.6
2020-Jan-28 04:15 007 0 gusting 2 5.6
2020-Jan-28 04:10 295 1 gusting 3 5.6
2020-Jan-28 04:05 330 5.6
2020-Jan-28 04:00 326 0 gusting 3 5.6
2020-Jan-28 03:55 307 1 gusting 3 5.6
2020-Jan-28 03:50 278 1 gusting 3 5.6
2020-Jan-28 03:45 286 5.6
2020-Jan-28 03:40 317 0 gusting 3 5.6
2020-Jan-28 03:35 340 5.6
2020-Jan-28 03:30 320 5.6
2020-Jan-28 03:25 355 0 gusting 2 5.6
2020-Jan-28 03:20 337 0 gusting 2 5.6
2020-Jan-28 03:15 336 0 gusting 2 5.6
2020-Jan-28 03:10 298 0 gusting 1 5.6
2020-Jan-28 03:05 307 5.6
2020-Jan-28 03:00 331 5.6
2020-Jan-28 02:55 028 5.6
2020-Jan-28 02:50 338 0 gusting 1 5.6
2020-Jan-28 02:45 331 5.6
2020-Jan-28 02:40 295 5.6
2020-Jan-28 02:35 292 0 gusting 2 5.6
2020-Jan-28 02:30 313 0 gusting 2 5.6
2020-Jan-28 02:25 5.0
2020-Jan-28 02:20 334 5.0
2020-Jan-28 02:15 337 5.0
2020-Jan-28 02:10 327 5.0
2020-Jan-28 02:05 327 5.0
2020-Jan-28 02:00 338 5.0
2020-Jan-28 01:55 324 5.6
2020-Jan-28 01:50 324 0 gusting 1 5.6
2020-Jan-28 01:45 331 5.6
2020-Jan-28 01:40 331 5.6
2020-Jan-28 01:35 331 5.6
2020-Jan-28 01:30 331 5.6
2020-Jan-28 01:25 327 5.6
2020-Jan-28 01:20 353 5.6
2020-Jan-28 01:15 344 5.6
2020-Jan-28 01:10 344 0 gusting 1 5.6
2020-Jan-28 01:05 321 5.6
2020-Jan-28 01:00 319 5.6
2020-Jan-28 00:55 330 0 gusting 2 6.1
2020-Jan-28 00:50 306 0 gusting 2 6.1
2020-Jan-28 00:45 320 0 gusting 3 6.1
2020-Jan-28 00:40 326 0 gusting 3 6.1
2020-Jan-28 00:35 305 1 gusting 3 6.1
2020-Jan-28 00:30 337 1 gusting 3 6.1
2020-Jan-28 00:25 357 0 gusting 4 6.1
2020-Jan-28 00:20 337 0 gusting 4 6.1
2020-Jan-28 00:15 003 6.7
2020-Jan-28 00:10 281 0 gusting 6 6.7
2020-Jan-28 00:05 307 0 gusting 6 6.7
2020-Jan-28 00:00 299 1 gusting 4 6.7
2020-Jan-27 23:55 6.7
2020-Jan-27 23:50 6.7
2020-Jan-27 23:45 288 0 gusting 3 6.7
2020-Jan-27 23:40 292 1 gusting 3 6.7
2020-Jan-27 23:35 336 1 gusting 4 6.7
2020-Jan-27 23:30 338 1 gusting 4 6.7
2020-Jan-27 23:24 324 0 gusting 3 6.7
2020-Jan-27 23:19 347 6.7
2020-Jan-27 23:14 340 1 gusting 5 7.2
2020-Jan-27 23:09 314 0 gusting 4 7.2
2020-Jan-27 23:04 341 1 gusting 4 7.2
2020-Jan-27 22:59 344 2 gusting 4 7.2
2020-Jan-27 22:54 307 0 gusting 4 7.2
2020-Jan-27 22:49 331 0 gusting 5 7.2
2020-Jan-27 22:44 7.2
2020-Jan-27 22:39 288 0 gusting 5 7.2
2020-Jan-27 22:34 319 0 gusting 4 7.2
2020-Jan-27 22:29 317 1 gusting 4 7.2
2020-Jan-27 22:24 354 0 gusting 4 7.2
2020-Jan-27 22:19 316 0 gusting 4 7.8
2020-Jan-27 22:14 340 0 gusting 4 7.8
2020-Jan-27 22:09 305 2 gusting 4 7.8
2020-Jan-27 22:04 269 1 gusting 4 7.8
2020-Jan-27 21:59 326 1 gusting 4 7.8
2020-Jan-27 21:54 321 0 gusting 5 7.8
2020-Jan-27 21:49 007 1 gusting 6 7.8
2020-Jan-27 21:44 345 1 gusting 6 7.8
2020-Jan-27 21:39 338 1 gusting 4 7.8
2020-Jan-27 21:34 338 1 gusting 4 7.8
2020-Jan-27 21:29 296 0 gusting 3 7.8
2020-Jan-27 21:24 7.8
2020-Jan-27 21:19 303 0 gusting 5 8.3
2020-Jan-27 21:14 307 1 gusting 5 8.3
2020-Jan-27 21:09 324 1 gusting 6 8.3
2020-Jan-27 21:04 319 2 gusting 6 8.3
2020-Jan-27 20:59 259 1 gusting 6 8.3
2020-Jan-27 20:54 330 1 gusting 6 8.3
2020-Jan-27 20:49 350 1 gusting 4 8.3
2020-Jan-27 20:44 331 1 gusting 4 8.3
2020-Jan-27 20:39 008 1 gusting 3 8.3
2020-Jan-27 20:34 066 0 gusting 3 8.3
2020-Jan-27 20:29 302 0 gusting 4 8.3
2020-Jan-27 20:24 337 1 gusting 4 8.3
2020-Jan-27 20:19 289 1 gusting 6 8.3
2020-Jan-27 20:14 283 2 gusting 6 8.3
2020-Jan-27 20:09 307 3 gusting 6 8.3
2020-Jan-27 20:04 319 1 gusting 6 8.9
2020-Jan-27 19:59 324 1 gusting 3 8.9
2020-Jan-27 19:54 326 0 gusting 2 8.9
2020-Jan-27 19:49 323 0 gusting 6 8.9
2020-Jan-27 19:44 250 1 gusting 6 8.9
2020-Jan-27 19:39 334 0 gusting 4 8.3
2020-Jan-27 19:34 123 0 gusting 3 8.3
2020-Jan-27 19:29 326 8.3
2020-Jan-27 19:24 197 1 gusting 5 8.3
2020-Jan-27 19:19 228 0 gusting 2 8.3
2020-Jan-27 19:14 303 0 gusting 2 8.3
2020-Jan-27 19:09 8.3
2020-Jan-27 19:04 8.3
2020-Jan-27 18:59 329 0 gusting 2 8.3
2020-Jan-27 18:54 079 8.3
2020-Jan-27 18:49 310 1 gusting 2 8.3
2020-Jan-27 18:44 321 8.3
2020-Jan-27 18:39 016 0 gusting 3 8.3
2020-Jan-27 18:34 298 8.3
2020-Jan-27 18:29 189 1 gusting 5 8.3
2020-Jan-27 18:24 007 1 gusting 5 8.3
2020-Jan-27 18:19 340 1 gusting 4 8.9
2020-Jan-27 18:14 331 0 gusting 3 8.9
2020-Jan-27 18:09 276 0 gusting 3 8.3
2020-Jan-27 18:04 223 0 gusting 2 8.3
2020-Jan-27 17:59 307 1 gusting 3 8.3
2020-Jan-27 17:54 303 0 gusting 3 8.3
2020-Jan-27 17:48 244 0 gusting 3 8.9
2020-Jan-27 17:43 340 0 gusting 3 8.9
2020-Jan-27 17:39 306 0 gusting 4 8.9
2020-Jan-27 17:33 252 0 gusting 5 8.9
2020-Jan-27 17:29 330 0 gusting 5 8.9
2020-Jan-27 17:23 296 0 gusting 3 8.9
2020-Jan-27 17:18 344 0 gusting 7 8.9
2020-Jan-27 17:13 310 1 gusting 7 8.3
2020-Jan-27 17:08 316 2 gusting 5 8.3
2020-Jan-27 17:03 276 3 gusting 5 8.3
2020-Jan-27 16:58 283 1 gusting 4 8.3
2020-Jan-27 16:53 158 0 gusting 5 8.3
2020-Jan-27 16:48 319 0 gusting 5 8.3
2020-Jan-27 16:43 350 1 gusting 5 8.3
2020-Jan-27 16:38 302 2 gusting 5 8.9
2020-Jan-27 16:33 8.9
2020-Jan-27 16:28 157 0 gusting 4 8.9
2020-Jan-27 16:23 314 0 gusting 4 8.9
2020-Jan-27 16:18 032 0 gusting 4 8.9
2020-Jan-27 16:13 293 0 gusting 4 8.9
2020-Jan-27 16:08 039 0 gusting 4 8.9
2020-Jan-27 16:03 8.9
2020-Jan-27 15:58 338 0 gusting 5 8.9
2020-Jan-27 15:53 185 0 gusting 5 8.3
2020-Jan-27 15:48 276 0 gusting 4 8.3
2020-Jan-27 15:43 350 0 gusting 3 7.8
2020-Jan-27 15:38 337 0 gusting 4 7.8
2020-Jan-27 15:33 331 7.8
2020-Jan-27 15:28 008 0 gusting 3 7.8
2020-Jan-27 15:23 316 7.8
2020-Jan-27 15:18 203 0 gusting 5 7.2
2020-Jan-27 15:13 159 1 gusting 5 7.2
2020-Jan-27 15:08 271 0 gusting 2 7.2
2020-Jan-27 15:03 281 7.2
2020-Jan-27 14:58 149 7.2
2020-Jan-27 14:53 351 6.7
2020-Jan-27 14:48 173 6.7
2020-Jan-27 14:43 338 0 gusting 3 6.7
2020-Jan-27 14:38 145 1 gusting 3 6.7
2020-Jan-27 14:33 337 0 gusting 3 6.7
2020-Jan-27 14:28 188 0 gusting 3 6.7
2020-Jan-27 14:23 324 6.7
2020-Jan-27 14:18 333 0 gusting 3 6.7
2020-Jan-27 14:13 353 1 gusting 3 6.7
2020-Jan-27 14:08 158 6.7
2020-Jan-27 14:03 254 0 gusting 3 6.1
2020-Jan-27 13:58 128 0 gusting 3 6.1
2020-Jan-27 13:53 179 5.6
2020-Jan-27 13:48 179 0 gusting 3 5.6
2020-Jan-27 13:43 316 0 gusting 3 5.0
2020-Jan-27 13:38 221 0 gusting 3 5.0
2020-Jan-27 13:33 316 3.9
2020-Jan-27 13:28 264 0 gusting 3 3.9
2020-Jan-27 13:23 166 3.9
2020-Jan-27 13:18 285 3.9
2020-Jan-27 13:13 171 3.3
2020-Jan-27 13:08 171 3.3
2020-Jan-27 13:03 171 3.3
2020-Jan-27 12:58 164 3.3
2020-Jan-27 12:53 154 3.3
2020-Jan-27 12:48 299 2.8
2020-Jan-27 12:43 296 2.8
2020-Jan-27 12:38 298 2.8
2020-Jan-27 12:33 298 2.8
2020-Jan-27 12:28 298 0 gusting 2 2.2
2020-Jan-27 12:23 281 2.2
2020-Jan-27 12:18 175 2.2
2020-Jan-27 12:13 175 2.2
2020-Jan-27 12:08 175 2.2
2020-Jan-27 12:03 175 2.2
2020-Jan-27 11:58 175 2.2
2020-Jan-27 11:53 175 1.7
2020-Jan-27 11:48 175 1.7
2020-Jan-27 11:43 175 1.7
2020-Jan-27 11:38 175 1.7
2020-Jan-27 11:33 175 1.7
2020-Jan-27 11:28 175 1.7
2020-Jan-27 11:23 175 1.7
2020-Jan-27 11:18 176 1.7
2020-Jan-27 11:13 176 1.7
2020-Jan-27 11:08 176 1.7
2020-Jan-27 11:03 176 1.7
2020-Jan-27 10:58 176 1.7
2020-Jan-27 10:53 176 1.7
2020-Jan-27 10:48 176 1.7
2020-Jan-27 10:43 176 1.7
2020-Jan-27 10:38 176 1.7
2020-Jan-27 10:33 176 1.7
2020-Jan-27 10:28 176 1.7
2020-Jan-27 10:23 176 1.7
2020-Jan-27 10:18 176 1.7
2020-Jan-27 10:13 176 1.7
2020-Jan-27 10:08 176 1.7
2020-Jan-27 10:03 176 2.2
2020-Jan-27 09:58 176 2.2
2020-Jan-27 09:53 176 2.2
2020-Jan-27 09:48 176 2.2
2020-Jan-27 09:43 176 2.2
2020-Jan-27 09:38 176 2.2
2020-Jan-27 09:33 176 2.2
2020-Jan-27 09:28 176 2.8
2020-Jan-27 09:23 176 2.8
2020-Jan-27 09:18 176 2.8
2020-Jan-27 09:13 176 2.8
2020-Jan-27 09:08 176 2.8
2020-Jan-27 09:03 176 2.8
2020-Jan-27 08:58 176 2.8
2020-Jan-27 08:53 176 2.8
2020-Jan-27 08:48 176 2.8
2020-Jan-27 08:43 176 2.8
2020-Jan-27 08:38 176 2.8
2020-Jan-27 08:33 176 2.8
2020-Jan-27 08:28 176 3.3
2020-Jan-27 08:23 176 3.3
2020-Jan-27 08:18 176 3.3
2020-Jan-27 08:13 176 3.3
2020-Jan-27 08:08 176 3.3
2020-Jan-27 08:03 176 3.3
2020-Jan-27 07:58 176 3.3
2020-Jan-27 07:53 176 3.3
2020-Jan-27 07:48 176 3.3
2020-Jan-27 07:43 176 3.3
2020-Jan-27 07:38 176 3.3
2020-Jan-27 07:33 176 3.3
2020-Jan-27 07:28 176 3.3
2020-Jan-27 07:23 176 3.3
2020-Jan-27 07:18 176 0 gusting 1 3.3
2020-Jan-27 07:13 331 3.3
2020-Jan-27 07:08 331 3.3
2020-Jan-27 07:03 331 3.3
2020-Jan-27 06:58 331 3.3
2020-Jan-27 06:53 331 3.3
2020-Jan-27 06:48 331 2.8
2020-Jan-27 06:43 331 2.8
2020-Jan-27 06:38 331 2.8
2020-Jan-27 06:33 331 2.8
2020-Jan-27 06:28 331 2.8
2020-Jan-27 06:23 331 2.8
2020-Jan-27 06:18 331 2.8
2020-Jan-27 06:13 331 2.8
2020-Jan-27 06:08 331 2.8
2020-Jan-27 06:03 331 2.8
2020-Jan-27 05:58 331 2.8
2020-Jan-27 05:53 331 2.8
2020-Jan-27 05:48 331 2.8
2020-Jan-27 05:43 331 2.8
2020-Jan-27 05:38 331 2.8
2020-Jan-27 05:33 331 3.3
2020-Jan-27 05:28 331 3.3
2020-Jan-27 05:23 331 3.3
2020-Jan-27 05:18 331 3.3
2020-Jan-27 05:13 331 3.3
2020-Jan-27 05:08 331 3.3
2020-Jan-27 05:03 331 3.3
2020-Jan-27 04:58 331 3.3
2020-Jan-27 04:53 331 3.3
2020-Jan-27 04:48 331 3.9
2020-Jan-27 04:43 331 3.9
2020-Jan-27 04:38 331 3.9
2020-Jan-27 04:33 331 3.9
2020-Jan-27 04:28 331 3.9
2020-Jan-27 04:23 331 4.4
2020-Jan-27 04:18 331 4.4
2020-Jan-27 04:13 331 4.4
2020-Jan-27 04:08 331 4.4
2020-Jan-27 04:03 331 4.4
2020-Jan-27 03:58 331 5.0
2020-Jan-27 03:53 331 5.0
2020-Jan-27 03:48 331 5.0
2020-Jan-27 03:43 331 5.0
2020-Jan-27 03:38 331 5.0
2020-Jan-27 03:33 331 5.0
2020-Jan-27 03:28 331 5.6
2020-Jan-27 03:23 331 5.6
2020-Jan-27 03:18 331 5.6
2020-Jan-27 03:13 317 5.6
2020-Jan-27 03:08 317 5.6
2020-Jan-27 03:03 298 5.6
2020-Jan-27 02:58 298 5.6
2020-Jan-27 02:53 298 5.6
2020-Jan-27 02:48 298 5.6
2020-Jan-27 02:43 298 5.6
2020-Jan-27 02:38 298 5.6
2020-Jan-27 02:33 298 5.6
2020-Jan-27 02:28 298 5.6
2020-Jan-27 02:23 5.6
2020-Jan-27 02:18 5.6
2020-Jan-27 02:13 5.6
2020-Jan-27 02:08 321 5.6
2020-Jan-27 02:03 316 5.6
2020-Jan-27 01:58 314 5.6
2020-Jan-27 01:53 312 5.6
2020-Jan-27 01:48 326 0 gusting 3 5.6
2020-Jan-27 01:43 324 5.6
2020-Jan-27 01:38 006 6.1
2020-Jan-27 01:33 305 0 gusting 3 6.1
2020-Jan-27 01:28 344 0 gusting 3 6.1
2020-Jan-27 01:23 333 1 gusting 3 6.1
2020-Jan-27 01:18 319 0 gusting 3 6.1
2020-Jan-27 01:13 327 0 gusting 3 6.1
2020-Jan-27 01:08 320 0 gusting 3 6.1
2020-Jan-27 01:03 341 1 gusting 3 6.1
2020-Jan-27 00:58 320 0 gusting 4 6.1
2020-Jan-27 00:53 302 0 gusting 4 6.1
2020-Jan-27 00:48 310 1 gusting 3 6.1
2020-Jan-27 00:43 340 1 gusting 3 6.1
2020-Jan-27 00:38 300 0 gusting 3 6.1
2020-Jan-27 00:33 274 0 gusting 3 6.1
2020-Jan-27 00:28 338 0 gusting 2 6.1
2020-Jan-27 00:23 331 1 gusting 4 6.7
2020-Jan-27 00:18 321 1 gusting 4 6.7
2020-Jan-27 00:13 309 1 gusting 6 6.7
2020-Jan-27 00:08 334 1 gusting 6 6.7
2020-Jan-27 00:03 344 1 gusting 4 6.7
2020-Jan-26 23:58 329 6.7
2020-Jan-26 23:53 331 0 gusting 3 6.7
2020-Jan-26 23:48 321 0 gusting 3 6.7
2020-Jan-26 23:43 341 0 gusting 1 6.7
2020-Jan-26 23:38 337 0 gusting 5 6.7
2020-Jan-26 23:33 319 1 gusting 5 6.7
2020-Jan-26 23:28 302 0 gusting 2 6.7
2020-Jan-26 23:23 326 0 gusting 2 6.7
2020-Jan-26 23:18 323 1 gusting 2 6.7
2020-Jan-26 23:13 327 6.7
2020-Jan-26 23:08 327 6.7
2020-Jan-26 23:03 347 6.7
2020-Jan-26 22:58 306 6.7
2020-Jan-26 22:53 334 6.7
2020-Jan-26 22:48 317 6.7
2020-Jan-26 22:43 324 0 gusting 2 6.7
2020-Jan-26 22:38 319 6.7
2020-Jan-26 22:33 336 0 gusting 3 7.2
2020-Jan-26 22:28 351 0 gusting 2 7.2
2020-Jan-26 22:23 316 0 gusting 1 7.2
2020-Jan-26 22:18 320 7.2
2020-Jan-26 22:13 316 0 gusting 1 7.2
2020-Jan-26 22:08 330 7.2
2020-Jan-26 22:03 324 7.2